Weather History for Louisville Bowman, KY

Change the Weather History Date:

Monday, March 18, 2013

  Actual Average Record
Temperature  
Mean Temperature 44 °F 48 °F  
Max Temperature 52 °F 57 °F 82 °F (1982)
Min Temperature 36 °F 38 °F 19 °F (1959)
Degree Days  
Heating Degree Days 21 17  
Month to date heating degree days 438 363  
Since 1 July heating degree days 3668 3724  
Cooling Degree Days 0 0  
Month to date cooling degree days 0 0  
Year to date cooling degree days 0 0  
Moisture  
Dew Point 40 °F    
Average Humidity 83    
Maximum Humidity 96    
Minimum Humidity 70    
Precipitation  
Precipitation 0.84 in 0.14 in 2.04 in (1992)
Month to date precipitation 3.51 2.26  
Year to date precipitation 10.22 8.82  
Sea Level Pressure  
Sea Level Pressure 29.75 in    
Wind  
Wind Speed 8 mph (WNW)    
Max Wind Speed 22 mph    
Max Gust Speed 29 mph    
Visibility 6 miles    
Events Rain , Thunderstorm    
T = Trace of Precipitation, MM = Missing Value Source: NWS Daily Summary

Daily Weather History Graph

Daily Weather History Graph

Search for Another Location

Airport:

Trip Planner

Search our weather history database for the weather conditions in past years. The results will help you decide how hot, cold, wet, or windy it might be!

Date:

Astronomy

Mar. 18, 2013 Rise Set
Actual Time 7:48 AM EDT 7:52 PM EDT
Civil Twilight 7:22 AM EDT 8:19 PM EDT
Nautical Twilight 6:51 AM EDT 8:50 PM EDT
Astronomical Twilight 6:20 AM EDT 9:21 PM EDT
Moon 11:52 AM EDT (3/18) 1:46 AM EDT (3/18)
Length of Visible Light 12h 56m
Length of Day
12h 04m
Waxing Crescent, 40% of the Moon is Illuminated
Mar 18
Waxing Crescent
Mar 19
First Quarter
Mar 27
Full
Apr 3
Last Quarter
Apr 10
New

Hourly Weather History & Observations

Time (EDT) Temp. Windchill Dew Point Humidity Pressure Visibility Wind Dir Wind Speed Gust Speed Precip Events Conditions
12:53 AM 37.0 °F 31.0 °F 34.0 °F 89% 29.90 in 10.0 mi East 8.1 mph - N/A   Overcast
1:53 AM 37.0 °F 29.8 °F 34.0 °F 89% 29.86 in 10.0 mi East 10.4 mph - N/A   Overcast
2:53 AM 37.9 °F 32.7 °F 35.1 °F 89% 29.82 in 10.0 mi East 6.9 mph - 0.00 in Rain Light Rain
3:53 AM 37.9 °F 34.4 °F 35.1 °F 89% 29.80 in 10.0 mi NNE 4.6 mph - 0.00 in Rain Light Rain
4:32 AM 37.4 °F 31.4 °F 35.6 °F 93% 29.76 in 4.0 mi NNE 8.1 mph - 0.04 in Rain Light Rain
4:53 AM 37.0 °F 25.9 °F 35.1 °F 93% 29.86 in 4.0 mi WNW 23.0 mph 28.8 mph 0.11 in Rain Rain
4:57 AM 37.4 °F 26.6 °F 35.6 °F 93% 29.86 in 2.5 mi NW 21.9 mph 28.8 mph 0.04 in Rain , Thunderstorm Heavy Rain
5:07 AM 35.6 °F 26.2 °F 35.6 °F 100% 29.82 in 3.0 mi NNW 15.0 mph 27.6 mph 0.09 in Rain , Thunderstorm Rain
5:29 AM 37.4 °F 29.3 °F 35.6 °F 93% 29.78 in 2.5 mi ENE 12.7 mph 17.3 mph 0.19 in Rain , Thunderstorm Heavy Thunderstorms and Rain
5:51 AM 37.4 °F 30.8 °F 35.6 °F 93% 29.76 in 3.0 mi East 9.2 mph - 0.33 in Rain , Thunderstorm Heavy Rain
5:53 AM 37.0 °F 29.8 °F 35.1 °F 93% 29.77 in 3.0 mi East 10.4 mph - 0.34 in Rain , Thunderstorm Heavy Rain
6:09 AM 37.4 °F 30.8 °F 35.6 °F 93% 29.72 in 4.0 mi East 9.2 mph - 0.08 in Rain Heavy Rain
6:53 AM 37.4 °F - 37.4 °F 100% 29.73 in 6.0 mi Calm Calm - N/A Rain Light Rain
7:30 AM 39.2 °F 37.0 °F 37.4 °F 93% 29.72 in 7.0 mi Variable 3.5 mph - 0.07 in Rain Light Rain
7:38 AM 39.2 °F 37.0 °F 37.4 °F 93% 29.70 in 6.0 mi SE 3.5 mph - 0.09 in Rain Rain
7:53 AM 39.0 °F - 37.9 °F 96% 29.73 in 8.0 mi Calm Calm - 0.10 in Rain Light Rain
8:53 AM 39.9 °F 37.8 °F 39.0 °F 97% 29.70 in 8.0 mi NNW 3.5 mph - 0.05 in   Overcast
9:53 AM 43.0 °F 41.3 °F 41.0 °F 93% 29.67 in 9.0 mi Variable 3.5 mph - 0.02 in   Overcast
10:53 AM 43.0 °F - 42.1 °F 97% 29.70 in 7.0 mi Calm Calm - 0.01 in Rain Light Rain
11:02 AM 44.6 °F - 42.8 °F 93% 29.69 in 5.0 mi Calm Calm - 0.00 in Rain Light Rain
11:30 AM 44.6 °F 39.7 °F 42.8 °F 93% 29.69 in 6.0 mi WNW 9.2 mph - 0.00 in Rain Light Rain
11:41 AM 44.6 °F - 44.6 °F 100% 29.67 in 6.0 mi Calm Calm - 0.00 in   Overcast
11:51 AM 44.6 °F 43.1 °F 42.8 °F 93% 29.68 in 6.0 mi West 3.5 mph - 0.00 in   Overcast
11:53 AM 45.0 °F - 43.0 °F 93% 29.69 in 6.0 mi Calm Calm - 0.00 in   Overcast
12:27 PM 44.6 °F - 44.6 °F 100% 29.70 in 2.5 mi Calm Calm - 0.00 in   Overcast
12:37 PM 44.6 °F 41.4 °F 42.8 °F 93% 29.70 in 1.8 mi NW 5.8 mph - 0.00 in   Overcast
12:48 PM 44.6 °F 42.2 °F 42.8 °F 93% 29.69 in 1.0 mi NW 4.6 mph - 0.00 in   Overcast
12:53 PM 44.1 °F 40.8 °F 43.0 °F 96% 29.70 in 1.0 mi WNW 5.8 mph - 0.00 in   Overcast
1:27 PM 46.4 °F - 46.4 °F 100% 29.69 in 1.2 mi Calm Calm - 0.01 in   Overcast
1:47 PM 48.2 °F - 46.4 °F 93% 29.69 in 2.0 mi WSW 3.5 mph - 0.01 in   Overcast
1:53 PM 48.9 °F - 46.9 °F 93% 29.69 in 2.5 mi WSW 3.5 mph - 0.01 in   Overcast
2:00 PM 48.2 °F - 46.4 °F 93% 29.68 in 2.5 mi West 6.9 mph - N/A   Overcast
2:34 PM 50.0 °F - 48.2 °F 94% 29.69 in 5.0 mi WSW 8.1 mph - N/A   Overcast
2:53 PM 50.0 °F - 48.9 °F 96% 29.69 in 7.0 mi WSW 9.2 mph - N/A   Overcast
3:31 PM 51.8 °F - 48.2 °F 88% 29.68 in 9.0 mi WSW 13.8 mph 19.6 mph N/A   Overcast
3:44 PM 51.8 °F - 48.2 °F 88% 29.68 in 10.0 mi WSW 13.8 mph - N/A   Overcast
3:53 PM 51.1 °F - 46.9 °F 86% 29.68 in 10.0 mi WSW 12.7 mph - N/A   Overcast
4:53 PM 52.0 °F - 46.0 °F 80% 29.69 in 10.0 mi WSW 12.7 mph - N/A   Overcast
5:53 PM 51.1 °F - 44.1 °F 77% 29.74 in 10.0 mi West 16.1 mph 26.5 mph N/A   Overcast
6:53 PM 50.0 °F - 43.0 °F 77% 29.78 in 10.0 mi West 16.1 mph - N/A   Overcast
7:53 PM 46.9 °F - 41.0 °F 80% 29.81 in 10.0 mi West 15.0 mph - N/A   Overcast
8:53 PM 46.0 °F 41.4 °F 39.0 °F 76% 29.85 in 10.0 mi West 9.2 mph - N/A   Overcast
9:53 PM 45.0 °F 37.9 °F 36.0 °F 71% 29.88 in 10.0 mi WNW 16.1 mph - N/A   Overcast
10:20 PM 44.6 °F 39.7 °F 35.6 °F 71% 29.89 in 10.0 mi WNW 9.2 mph 20.7 mph N/A   Mostly Cloudy
10:53 PM 42.1 °F 36.6 °F 34.0 °F 73% 29.91 in 10.0 mi WNW 9.2 mph - N/A   Scattered Clouds
11:53 PM 39.9 °F 35.1 °F 34.0 °F 79% 29.92 in 10.0 mi West 6.9 mph - N/A   Clear